[[{"header":{"parameterUnit":"m.s-1","parameterCategory":1,"la1":30.2991,"la2":30.254,"lo1":-89.0895,"lo2":-89.0444,"dy":0.0017,"dx":0.0017,"nx":28,"ny":28,"refTime":"2025-07-28T09:00:00:Z","depth":0,"parameterNumber":2,"parameterNumberName":"U-component_of_WINDS"},"data":[0,0,0,0,0,0,0,0,0,0,0,0,0,0,0,0,0,0,0,0,0,0,0,0,0,0,0,0,0,0,0,0,0,0,0,0,0,0,0,0,0,0,0,0,0,0,0,0,0,0,0,0,0,0,0,0,0,0,1.6468,1.6468,0,1.6457,1.6457,1.6456,1.6344,1.6341,1.6338,1.6335,1.6328,1.6331,1.6333,0,0,0,0,0,0,0,0,0,0,0,0,0,1.6396,1.6397,1.6468,1.6468,1.6467,1.6457,1.6457,1.6456,1.6344,1.6341,1.6337,1.6334,1.6328,1.6331,1.6334,0,0,0,0,0,0,0,0,0,0,0,0,0,1.641,1.6398,1.6468,1.641,1.6405,1.6457,1.6457,1.6456,1.6345,1.6341,1.6336,1.6332,1.6327,1.633,1.6334,1.6442,0,0,1.6345,1.6347,0,0,0,0,0,0,0,0,1.6409,1.6413,1.6419,1.6414,1.6408,1.6397,1.6428,1.6452,1.6346,1.6368,1.6335,1.633,1.6355,1.6356,1.6364,1.6441,1.6441,1.6346,1.6348,1.6349,1.635,0,0,0,0,0,0,0,1.6409,1.6413,1.6463,1.6419,1.6413,1.6386,1.6383,1.6432,1.6386,1.6366,1.6357,1.6357,1.6351,1.636,1.6363,1.6441,1.6345,1.6349,1.6351,1.6352,1.6607,1.6611,0,0,0,0,0,0,1.6415,1.6413,1.6464,1.6463,1.6398,1.6391,1.6388,1.6405,1.6385,1.6377,1.6361,1.6352,1.6356,1.6358,1.6362,1.6486,1.6349,1.6353,1.6355,1.6602,1.6608,1.6613,0,0,0,0,0,0,1.6414,1.6421,1.6464,1.6436,1.6439,1.6396,1.6417,1.6407,1.6416,1.6381,1.6373,1.6378,1.6353,1.6357,1.6422,1.6484,1.6354,1.6358,1.6597,1.6604,1.661,1.6736,0,0,0,0,0,0,1.6412,1.6421,1.646,1.6437,1.6441,1.6524,1.6421,1.641,1.6422,1.641,1.6395,1.6389,1.635,1.6417,1.6426,1.6487,1.6361,1.6591,1.66,1.6608,1.6726,1.6746,1.6764,0,0,0,0,0,1.641,1.6497,1.6463,1.647,1.6489,1.6528,1.653,1.6482,1.6427,1.6467,1.6445,1.6389,1.6477,1.6425,1.6434,1.6497,1.6587,1.6598,1.6608,1.6718,1.6742,1.6763,0,0,0,0,0,0,1.653,1.6493,1.6455,1.6537,1.6536,1.6509,1.6557,1.651,1.6526,1.6514,1.6456,1.6454,1.6528,1.6519,1.6463,1.66,1.6522,1.6535,1.6603,1.6626,1.6644,1.6645,1.6364,0,0,0,0,0,1.6566,1.6599,1.6565,1.6641,1.6642,1.6601,1.6615,1.6579,1.6576,1.6576,1.6558,1.6559,1.6587,1.6606,1.663,1.6725,1.672,1.6773,1.6791,1.6807,1.6818,1.6868,1.689,1.6646,1.6646,1.6646,0,0,1.664,1.6624,1.6649,1.6665,1.666,1.6696,1.6601,1.6644,1.667,1.6583,1.6642,1.6631,1.6628,1.6709,1.6743,1.6703,1.6885,1.682,1.6833,1.6835,1.688,1.6904,1.6924,1.6653,1.6652,1.6651,0,0,1.6794,1.6786,1.6847,1.6844,1.6838,1.6809,1.6825,1.6804,1.6792,1.6852,1.6786,1.6819,1.6867,1.6868,1.6874,1.703,1.6979,1.704,1.7137,1.7186,1.7205,1.7222,1.7277,1.7297,1.7051,1.7051,1.7052,0,1.6888,1.6939,1.6885,1.6932,1.6941,1.6862,1.6925,1.6925,1.6928,1.6936,1.6892,1.6951,1.6943,1.7023,1.7061,1.7069,1.7085,1.704,1.7206,1.7223,1.7237,1.7289,1.731,1.7059,1.7058,1.7057,1.7056,0,1.7054,1.7091,1.7142,1.7144,1.7159,1.7214,1.717,1.7192,1.7155,1.7132,1.7194,1.7182,1.7202,1.7218,1.7183,1.7293,1.7268,1.7216,1.7136,1.7269,1.7316,1.7336,1.7069,1.7066,1.7064,1.7062,0,0,1.7282,1.7255,1.7274,1.7274,1.7262,1.729,1.7342,1.7359,1.7379,1.7384,1.7426,1.7469,1.7421,1.7429,1.7393,1.7436,1.7559,1.7378,1.7377,1.7411,1.768,1.7718,1.7742,1.7526,1.7529,1.7532,1.768,0,1.7429,1.7514,1.7468,1.756,1.7593,1.752,1.7565,1.7563,1.7543,1.7569,1.7548,1.7579,1.7513,1.7517,1.7557,1.7536,1.7612,1.7525,1.7565,1.7567,1.7566,1.7767,1.7808,1.7947,1.7698,1.7701,1.7703,0,1.7612,1.7623,1.7718,1.7699,1.7711,1.7753,1.7765,1.7791,1.7788,1.7771,1.778,1.7734,1.7784,1.7707,1.7776,1.7717,1.7731,1.7724,1.7728,1.7729,1.7642,1.7773,1.7991,1.8012,1.7732,1.773,1.7728,0,1.7768,1.7807,1.7868,1.7871,1.7851,1.7881,1.7875,1.7867,1.7881,1.7893,1.7901,1.792,1.793,1.7946,1.7906,1.7853,1.7981,1.79,1.7968,1.797,1.7997,1.7996,1.822,1.8009,1.8009,1.8008,1.8008,0,1.7936,1.7997,1.7938,1.7976,1.8042,1.7989,1.8057,1.8042,1.8036,1.8071,1.801,1.8044,1.799,1.8019,1.7989,1.8051,1.8056,1.8044,1.8035,1.8048,1.805,1.8056,1.8045,1.8014,1.8013,1.8012,1.8011,0,1.8121,1.8083,1.8145,1.8121,1.8117,1.8166,1.8146,1.8181,1.8157,1.8202,1.8209,1.8172,1.8203,1.8166,1.8194,1.8174,1.8258,1.8235,1.8258,1.8251,1.8321,1.8315,1.8556,1.8585,1.8357,1.8359,1.8361,0,1.823,1.8275,1.8255,1.8273,1.827,1.83,1.8313,1.8264,1.8281,1.8281,1.8316,1.8342,1.8359,1.8413,1.8389,1.8411,1.8387,1.8471,1.839,1.8403,1.8388,1.8385,1.8389,1.8487,1.849,1.8492,1.8494,0,1.8428,1.8407,1.8428,1.8443,1.8461,1.8471,1.8476,1.8495,1.8443,1.8466,1.8496,1.851,1.8538,1.8564,1.858,1.8574,1.8526,1.8519,1.8536,1.855,1.8561,1.8555,1.8302,1.8514,1.8512,1.851,1.8509,1.8508,1.8577,1.8613,1.8605,1.8631,1.8629,1.8636,1.8667,1.8647,1.8671,1.8689,1.8659,1.8697,1.8694,1.8709,1.8709,1.8739,1.8703,1.8728,1.8734,1.874,1.875,1.8557,1.8741,1.8741,1.874,1.874,1.8739,0,1.8771,1.8762,1.8786,1.8795,1.8815,1.8767,1.8771,1.8792,1.8826,1.8826,1.8844,1.888,1.8905,1.8884,1.8905,1.8933,1.8912,1.894,1.8937,1.8937,1.8781,1.8764,1.8957,1.8957,1.8957,1.8957,1.8957,1.8957,1.8874,1.8932,1.8911,1.8969,1.8959,1.8995,1.9001,1.9008,1.9007,1.9049,1.9069,1.9055,1.9047,1.9067,1.9089,1.9082,1.9092,1.9129,1.9114,1.8969,1.8948,1.8927,1.8911,1.9132,1.9132,1.9267,1.9268,1.9269]},{"header":{"parameterUnit":"m.s-1","parameterCategory":1,"la1":30.2991,"la2":30.254,"lo1":-89.0895,"lo2":-89.0444,"dy":0.0017,"dx":0.0017,"nx":28,"ny":28,"refTime":"2025-07-28T09:00:00:Z","depth":0,"parameterNumber":3,"parameterNumberName":"V-component_of_WINDS"},"data":[0,0,0,0,0,0,0,0,0,0,0,0,0,0,0,0,0,0,0,0,0,0,0,0,0,0,0,0,0,0,0,0,0,0,0,0,0,0,0,0,0,0,0,0,0,0,0,0,0,0,0,0,0,0,0,0,0,0,1.5907,1.5906,0,1.5876,1.5875,1.5875,1.5786,1.5784,1.5782,1.5781,1.5751,1.5752,1.5753,0,0,0,0,0,0,0,0,0,0,0,0,0,1.5892,1.5892,1.5907,1.5906,1.5906,1.5876,1.5875,1.5875,1.5787,1.5784,1.5782,1.578,1.5751,1.5752,1.5753,0,0,0,0,0,0,0,0,0,0,0,0,0,1.5883,1.5893,1.5907,1.5858,1.5854,1.5876,1.5875,1.5875,1.5787,1.5784,1.5781,1.5779,1.575,1.5752,1.5753,1.5821,0,0,1.5758,1.5759,0,0,0,0,0,0,0,0,1.5884,1.5884,1.5866,1.5862,1.5856,1.5832,1.5859,1.5857,1.5788,1.5812,1.5781,1.5777,1.578,1.5779,1.578,1.5819,1.5818,1.5758,1.5759,1.576,1.576,0,0,0,0,0,0,0,1.5885,1.5885,1.5894,1.5866,1.586,1.5839,1.5834,1.5858,1.5813,1.581,1.5804,1.5801,1.5777,1.5779,1.5779,1.5818,1.5758,1.5759,1.576,1.5761,1.5911,1.5914,0,0,0,0,0,0,1.5892,1.5886,1.5895,1.5893,1.5863,1.5841,1.5836,1.5843,1.5813,1.5805,1.5804,1.5797,1.5778,1.5777,1.5777,1.5854,1.576,1.5761,1.5762,1.5908,1.5912,1.5915,0,0,0,0,0,0,1.5892,1.5893,1.5897,1.5888,1.5887,1.5845,1.5853,1.5844,1.5845,1.5808,1.5799,1.5813,1.5775,1.5775,1.581,1.5852,1.5762,1.5763,1.5904,1.5909,1.5913,1.6008,0,0,0,0,0,0,1.5892,1.5894,1.5919,1.5889,1.5887,1.593,1.5855,1.5845,1.5847,1.5839,1.5814,1.5808,1.5773,1.5809,1.5812,1.5852,1.5764,1.59,1.5906,1.5912,1.6001,1.6016,1.6028,0,0,0,0,0,1.5892,1.5947,1.592,1.5922,1.5917,1.5933,1.5932,1.589,1.5851,1.5876,1.5852,1.5808,1.5847,1.5813,1.5816,1.5857,1.5898,1.5905,1.5911,1.5995,1.6013,1.6028,0,0,0,0,0,0,1.5984,1.5942,1.5912,1.596,1.595,1.5918,1.5947,1.591,1.5912,1.5904,1.5852,1.5848,1.589,1.5877,1.584,1.5921,1.5865,1.5873,1.5928,1.5944,1.5957,1.5959,1.5766,0,0,0,0,0,1.6009,1.6024,1.5988,1.6034,1.603,1.599,1.5995,1.5964,1.5952,1.5948,1.5927,1.5918,1.5927,1.5935,1.5942,1.5999,1.5993,1.6029,1.6042,1.6054,1.6061,1.609,1.6106,1.5938,1.5938,1.5938,0,0,1.6063,1.6042,1.6055,1.6052,1.604,1.6058,1.5987,1.6009,1.6021,1.5951,1.5983,1.5967,1.5954,1.6001,1.602,1.5991,1.6106,1.6062,1.6071,1.6073,1.6099,1.6115,1.6129,1.5942,1.5942,1.5941,0,0,1.6169,1.6155,1.6191,1.6181,1.6165,1.6138,1.6147,1.612,1.6107,1.6138,1.6086,1.61,1.6119,1.6111,1.611,1.6214,1.6174,1.6217,1.6287,1.6316,1.6329,1.634,1.6377,1.6391,1.6225,1.6225,1.6225,0,1.6238,1.6261,1.6215,1.6239,1.6239,1.6176,1.6213,1.6206,1.6194,1.6196,1.6163,1.6185,1.6171,1.6215,1.6241,1.6242,1.6251,1.622,1.6331,1.6342,1.6352,1.6386,1.6401,1.6231,1.623,1.6229,1.6229,0,1.6346,1.6363,1.6394,1.6383,1.6387,1.6418,1.6377,1.6386,1.6355,1.6332,1.6364,1.6346,1.6348,1.6357,1.6327,1.6397,1.6379,1.634,1.6282,1.6374,1.6406,1.6419,1.6238,1.6236,1.6235,1.6233,0,0,1.6509,1.6471,1.6484,1.6478,1.6455,1.6468,1.6496,1.6498,1.6507,1.6501,1.6523,1.6541,1.6504,1.6502,1.6471,1.6497,1.658,1.6454,1.6453,1.6478,1.6656,1.6686,1.6702,1.6554,1.6556,1.6558,1.6657,0,1.6609,1.6653,1.6613,1.6666,1.6681,1.6622,1.6647,1.6636,1.6615,1.6626,1.6603,1.6616,1.6567,1.6565,1.6588,1.6565,1.6615,1.6558,1.6575,1.6576,1.6579,1.6718,1.675,1.6844,1.6669,1.6671,1.6673,0,1.6731,1.6729,1.6784,1.6758,1.6763,1.6786,1.6784,1.6795,1.6782,1.6765,1.6764,1.6725,1.6752,1.6696,1.6732,1.6694,1.6699,1.6689,1.6692,1.6691,1.663,1.6722,1.6873,1.6888,1.6692,1.6691,1.6689,0,1.6844,1.6856,1.6889,1.6886,1.6857,1.6875,1.6864,1.6848,1.6851,1.685,1.6852,1.6855,1.6856,1.6859,1.6823,1.6786,1.6864,1.6805,1.6851,1.6852,1.687,1.6869,1.7024,1.6874,1.6873,1.6873,1.6873,0,1.6959,1.6995,1.694,1.6961,1.6999,1.6953,1.6992,1.6975,1.6962,1.6979,1.6928,1.6946,1.6896,1.6909,1.6881,1.6915,1.6916,1.6904,1.6896,1.6908,1.691,1.691,1.6903,1.6877,1.6876,1.6875,1.6875,0,1.7091,1.7056,1.7089,1.7058,1.7052,1.7081,1.7056,1.7074,1.705,1.7073,1.7075,1.7038,1.705,1.7014,1.7021,1.7002,1.7052,1.7033,1.7056,1.705,1.7098,1.7094,1.7258,1.7277,1.7116,1.7117,1.7119,0,1.7167,1.7193,1.7165,1.7173,1.7164,1.7177,1.718,1.7136,1.7141,1.7129,1.7149,1.7157,1.7161,1.7183,1.7157,1.7162,1.7143,1.7201,1.7144,1.7155,1.7144,1.7143,1.7145,1.7212,1.7214,1.7216,1.7217,0,1.7305,1.7286,1.7292,1.7293,1.7298,1.7296,1.7291,1.73,1.7253,1.7262,1.7273,1.7276,1.7283,1.7292,1.7291,1.728,1.7242,1.7235,1.7246,1.7259,1.7271,1.7265,1.7088,1.7232,1.723,1.7229,1.7228,1.7228,1.7411,1.7431,1.7414,1.7423,1.7415,1.7411,1.7427,1.7405,1.7413,1.7415,1.7388,1.7405,1.7393,1.7388,1.7381,1.7394,1.7368,1.7384,1.7387,1.7392,1.74,1.7269,1.7394,1.7393,1.7393,1.7393,1.7392,0,1.7546,1.7532,1.7541,1.7535,1.7542,1.7504,1.7497,1.7505,1.7521,1.7512,1.7516,1.753,1.7538,1.7513,1.7518,1.7533,1.7515,1.7536,1.7534,1.7532,1.7423,1.7413,1.755,1.755,1.755,1.755,1.755,1.755,1.7617,1.7649,1.7628,1.7656,1.7642,1.7658,1.7657,1.7654,1.7646,1.7663,1.7669,1.7653,1.7637,1.7641,1.7647,1.7639,1.7643,1.767,1.7657,1.7555,1.754,1.7525,1.7515,1.7671,1.7672,1.7764,1.7765,1.7766]}]]